Location: DARK SKY Beskydy - Park tmavé oblohy, www.darkskybeskydy.cz
(49.4926°N, 18.5016°E)
Time: 11:26:25
(UTC+02:00)

Vanguard 1 - Pass Details

Date: 29 February 2024
Orbit: 653 x 3825 km, 34.2° (Epoch: 12 April)

Event Time Altitude Azimuth Distance (km) Brightness Sun altitude
Rises 02:13:39 0° 277° (W) 7,530 - -39.7°
Reaches altitude 10° 02:22:03 10° 259° (W) 6,825 - -38.7°
Maximum altitude 02:32:46 16° 231° (SW) 6,419 - -37.4°
Drops below altitude 10° 02:43:20 10° 202° (SSW) 6,642 - -36.0°
Sets 02:51:32 0° 183° (S) 7,214 - -34.9°
